Voltar ao catálogo

STARLINK-35002

AtivoComunicaçõesSSO
NORAD 65291·PAYLOAD·🇺🇸 United States

Lançado Aug 22, 2025 de Vandenberg Space Force Base

Loading…

Próximas Passagens (próximas 24 horas)

TLE

AtualizadoSource: CelesTrak SupGP

Época: Sep 14, 2026, 20:49 UTC

1 65291C 25184U   26257.86784722 -.00013576  00000+0 -42162-3 0  2577
2 65291  97.2833 305.8566 0000977  95.8899  39.4771 15.33433258    10

Acompanhe STARLINK-35002 em tempo real com AllMySat

Download on the App Store